Montpelier, VT

11:09 AM EST on December 10, 2019 (GMT -0500)
Knapp State

Weather History for KMPV - July, 2019

Change the Weather History Date:

Sunday, July 21, 2019

  Actual Average Record
Temperature  
Mean Temperature 74 °F 67 °F  
Max Temperature 83 °F 79 °F 93 °F (1994)
Min Temperature 64 °F 56 °F 39 °F (1950)
Degree Days  
Heating Degree Days 0 1  
Month to date heating degree days 6 27  
Since 1 June heating degree days 150 148  
Since 1 July heating degree days 6 27  
Cooling Degree Days 9 3  
Month to date cooling degree days 96 67  
Year to date cooling degree days 116 130  
Since 1 June cooling degree days 115 120  
Growing Degree Days 24 (Base 50)    
Moisture  
Dew Point 68 °F    
Average Humidity 78    
Maximum Humidity 100    
Minimum Humidity 55    
Precipitation  
Precipitation 0.10 in 0.13 in 1.31 in (1954)
Month to date precipitation 2.54 2.62  
Year to date precipitation 27.47 19.33  
Sea Level Pressure  
Sea Level Pressure 29.79 in    
Wind  
Wind Speed 5 mph (West)    
Max Wind Speed 24 mph    
Max Gust Speed 32 mph    
Visibility 9 miles    
Events Rain    
T = Trace of Precipitation, MM = Missing Value Source: NWS Daily Summary

Daily Weather History Graph

Daily Weather History Graph

Search for Another Location

Airport or City:

Astronomy

Jul. 21, 2019 Rise Set
Actual Time 5:26 AM EDT 8:26 PM EDT
Civil Twilight 4:51 AM EDT 9:01 PM EDT
Nautical Twilight 4:07 AM EDT 9:44 PM EDT
Astronomical Twilight 3:14 AM EDT 10:37 PM EDT
Moon 11:10 PM EDT (7/21) 9:51 AM EDT (7/21)
Length of Visible Light 16h 09m
Length of Day
15h 00m
Waning Gibbous, 80% of the Moon is Illuminated
Jul 21
Waning Gibbous
Jul 24
Last Quarter
Jul 31
New
Aug 7
First Quarter
Aug 15
Full

Hourly Weather History & Observations

Time (EDT) Temp. Heat Index Dew Point Humidity Pressure Visibility Wind Dir Wind Speed Gust Speed Precip Events Conditions
12:51 AM 70.0 °F - 69.1 °F 97% 29.76 in 8.0 mi Calm Calm - N/A   Scattered Clouds
12:57 AM 69.1 °F - 69.1 °F 100% 29.78 in 1.8 mi Calm Calm - N/A   Mostly Cloudy
12:59 AM 69.1 °F - 69.1 °F 100% 29.78 in 1.2 mi NE 3.5 mph - N/A   Mostly Cloudy
1:08 AM 69.1 °F - 69.1 °F 100% 29.78 in 2.0 mi Calm Calm - N/A   Mostly Cloudy
1:11 AM 69.1 °F - 69.1 °F 100% 29.78 in 5.0 mi Calm Calm - N/A   Scattered Clouds
1:51 AM 70.0 °F - 69.1 °F 97% 29.75 in 10.0 mi Calm Calm - N/A   Clear
2:51 AM 71.1 °F - 70.0 °F 96% 29.74 in 10.0 mi Calm Calm - N/A   Partly Cloudy
3:51 AM 72.0 °F - 70.0 °F 93% 29.73 in 10.0 mi Calm Calm - N/A   Partly Cloudy
4:51 AM 75.0 °F - 71.1 °F 87% 29.72 in 10.0 mi WSW 3.5 mph - N/A   Partly Cloudy
5:51 AM 75.9 °F - 71.1 °F 85% 29.73 in 10.0 mi SSW 5.8 mph - N/A   Scattered Clouds
6:51 AM 73.0 °F - 72.0 °F 96% 29.75 in 10.0 mi Calm Calm - N/A   Scattered Clouds
7:51 AM 77.0 °F - 72.0 °F 84% 29.75 in 10.0 mi Calm Calm - N/A   Clear
8:51 AM 79.0 °F - 72.0 °F 79% 29.75 in 10.0 mi West 6.9 mph - N/A   Clear
9:51 AM 78.1 °F - 69.1 °F 74% 29.75 in 10.0 mi Variable 6.9 mph - N/A   Mostly Cloudy
10:51 AM 81.0 °F 83.8 °F 68.0 °F 65% 29.74 in 10.0 mi WNW 11.5 mph 23.0 mph N/A   Mostly Cloudy
11:51 AM 81.0 °F 83.8 °F 68.0 °F 65% 29.76 in 10.0 mi WNW 12.7 mph 21.9 mph N/A   Scattered Clouds
12:51 PM 82.0 °F 84.9 °F 68.0 °F 62% 29.75 in 10.0 mi WNW 15.0 mph 20.7 mph N/A   Scattered Clouds
1:51 PM 79.0 °F - 68.0 °F 69% 29.78 in 10.0 mi NW 12.7 mph 19.6 mph N/A   Mostly Cloudy
2:51 PM 78.1 °F - 64.9 °F 64% 29.79 in 10.0 mi West 4.6 mph - N/A   Mostly Cloudy
3:51 PM 81.0 °F 82.7 °F 64.9 °F 58% 29.79 in 10.0 mi NW 10.4 mph - N/A   Mostly Cloudy
4:51 PM 82.0 °F 83.4 °F 64.0 °F 54% 29.78 in 10.0 mi WNW 9.2 mph - N/A   Scattered Clouds
5:44 PM 72.0 °F - 66.9 °F 84% 29.83 in 2.5 mi NW 10.4 mph 32.2 mph 0.08 in Rain Light Rain
5:51 PM 72.0 °F - 66.9 °F 84% 29.82 in 10.0 mi WNW 12.7 mph 18.4 mph 0.08 in Rain Light Rain
6:51 PM 71.1 °F - 66.9 °F 87% 29.84 in 10.0 mi West 4.6 mph - 0.02 in   Overcast
7:51 PM 72.0 °F - 68.0 °F 87% 29.84 in 10.0 mi Calm Calm - N/A   Overcast
8:51 PM 68.0 °F - 68.0 °F 100% 29.86 in 10.0 mi Calm Calm - N/A   Scattered Clouds
9:51 PM 66.9 °F - 66.0 °F 97% 29.88 in 10.0 mi WSW 3.5 mph - N/A   Partly Cloudy
10:51 PM 66.9 °F - 64.0 °F 90% 29.89 in 10.0 mi WSW 3.5 mph - N/A   Scattered Clouds
11:51 PM 66.0 °F - 64.0 °F 93% 29.90 in 10.0 mi South 3.5 mph - N/A   Overcast